• In Russia
  • List of Countries
  • For 7 days
  • Water Temperature
  • Satellite Maps
  • Weather Map
  • Weather Widgets
  • user-avatar
    Login

    Hourly Weather Al-Jahra

    Today, 23 October, Tuesday

    Time Temperature Precipitation Wind Pressure Humidity
    00:00 +29°C° 0.2 mm 1 mps 756 mmHg 69%
    01:00 +29°C° 0.2 mm 2 mps 755 mmHg 70%
    02:00 +29°C° 0.2 mm 2 mps 755 mmHg 72%
    03:00 +29°C° 0.2 mm 1 mps 755 mmHg 74%
    04:00 +28°C° 0.2 mm 1 mps 756 mmHg 74%
    05:00 +28°C° 0.2 mm 1 mps 756 mmHg 74%
    06:00 +28°C° 0.2 mm 1 mps 756 mmHg 75%
    07:00 +29°C° 0.2 mm 1 mps 756 mmHg 68%
    08:00 +31°C° 0.2 mm 1 mps 756 mmHg 60%
    09:00 +32°C° 0.2 mm 1 mps 756 mmHg 53%
    10:00 +33°C° 0 mm 1 mps 756 mmHg 47%
    11:00 +34°C° 0 mm 1 mps 756 mmHg 41%
    12:00 +35°C° 0 mm 1 mps 756 mmHg 35%
    13:00 +36°C° 0 mm 2 mps 755 mmHg 32%
    14:00 +36°C° 0 mm 3 mps 755 mmHg 29%
    15:00 +37°C° 0 mm 4 mps 755 mmHg 26%
    16:00 +36°C° 0 mm 4 mps 755 mmHg 26%
    17:00 +35°C° 0 mm 3 mps 755 mmHg 27%
    18:00 +34°C° 0 mm 3 mps 754 mmHg 28%
    19:00 +33°C° 0 mm 3 mps 755 mmHg 29%
    20:00 +33°C° 0 mm 3 mps 755 mmHg 29%
    21:00 +31°C° 0 mm 3 mps 755 mmHg 30%
    22:00 +31°C° 0 mm 3 mps 755 mmHg 31%
    23:00 +30°C° 0 mm 3 mps 755 mmHg 31%

    Tomorrow, 24 October, Wednesday

    Time Temperature Precipitation Wind Pressure Humidity
    00:00 +30°C° 0 mm 3 mps 755 mmHg 31%
    01:00 +29°C° 0 mm 3 mps 755 mmHg 33%
    02:00 +29°C° 0 mm 4 mps 755 mmHg 34%
    03:00 +29°C° 0 mm 4 mps 754 mmHg 35%
    04:00 +28°C° 0 mm 3 mps 754 mmHg 36%
    05:00 +28°C° 0 mm 3 mps 754 mmHg 38%
    06:00 +27°C° 0 mm 3 mps 755 mmHg 40%
    07:00 +29°C° 0 mm 3 mps 755 mmHg 37%
    08:00 +30°C° 0 mm 2 mps 755 mmHg 35%
    09:00 +32°C° 0 mm 2 mps 756 mmHg 32%
    10:00 +33°C° 0 mm 1 mps 755 mmHg 29%
    11:00 +34°C° 0 mm 1 mps 755 mmHg 27%
    12:00 +33°C° 0 mm 0 mps 754 mmHg 24%
    13:00 +35°C° 0 mm 1 mps 754 mmHg 23%
    14:00 +35°C° 0 mm 1 mps 753 mmHg 21%
    15:00 +36°C° 0 mm 1 mps 753 mmHg 20%
    16:00 +35°C° 0 mm 1 mps 752 mmHg 22%
    17:00 +34°C° 0 mm 1 mps 752 mmHg 24%
    18:00 +32°C° 0 mm 1 mps 752 mmHg 26%
    19:00 +32°C° 0 mm 2 mps 753 mmHg 27%
    20:00 +31°C° 0 mm 2 mps 753 mmHg 28%
    21:00 +31°C° 0 mm 2 mps 753 mmHg 29%
    22:00 +31°C° 0 mm 2 mps 753 mmHg 30%
    23:00 +30°C° 0 mm 2 mps 753 mmHg 30%

    Day after tomorrow, 25 October, Thursday

    Time Temperature Precipitation Wind Pressure Humidity
    00:00 +30°C° 0 mm 3 mps 753 mmHg 31%
    01:00 +30°C° 0 mm 3 mps 753 mmHg 31%
    02:00 +30°C° 0 mm 3 mps 752 mmHg 31%
    03:00 +29°C° 0 mm 3 mps 752 mmHg 32%
    04:00 +29°C° 0 mm 3 mps 752 mmHg 32%
    05:00 +29°C° 0 mm 3 mps 752 mmHg 31%
    06:00 +29°C° 0 mm 3 mps 752 mmHg 31%
    07:00 +30°C° 0 mm 4 mps 753 mmHg 29%
    08:00 +33°C° 0 mm 5 mps 753 mmHg 26%
    09:00 +34°C° 0 mm 5 mps 753 mmHg 23%
    10:00 +36°C° 0 mm 6 mps 753 mmHg 21%
    11:00 +38°C° 0 mm 6 mps 753 mmHg 18%
    12:00 +40°C° 0 mm 6 mps 752 mmHg 15%
    13:00 +41°C° 0 mm 6 mps 752 mmHg 15%
    14:00 +41°C° 0 mm 6 mps 751 mmHg 14%
    15:00 +41°C° 0 mm 6 mps 751 mmHg 13%
    16:00 +40°C° 0 mm 6 mps 751 mmHg 16%
    17:00 +39°C° 0 mm 6 mps 751 mmHg 19%
    18:00 +36°C° 0 mm 6 mps 751 mmHg 22%
    19:00 +36°C° 0 mm 6 mps 751 mmHg 25%
    20:00 +35°C° 0 mm 7 mps 751 mmHg 29%
    21:00 +34°C° 0 mm 7 mps 752 mmHg 32%
    22:00 +34°C° 0.2 mm 7 mps 752 mmHg 33%
    23:00 +34°C° 0.2 mm 7 mps 752 mmHg 34%

    26 October, Friday

    Time Temperature Precipitation Wind Pressure Humidity
    00:00 +33°C° 0.2 mm 7 mps 752 mmHg 35%
    01:00 +33°C° 0.2 mm 6 mps 752 mmHg 33%
    02:00 +33°C° 0.2 mm 6 mps 752 mmHg 31%
    03:00 +33°C° 0.2 mm 6 mps 752 mmHg 28%
    04:00 +33°C° 0 mm 5 mps 752 mmHg 28%
    05:00 +33°C° 0 mm 5 mps 752 mmHg 28%
    06:00 +33°C° 0 mm 5 mps 753 mmHg 27%
    07:00 +34°C° 0 mm 6 mps 753 mmHg 27%
    08:00 +35°C° 0 mm 6 mps 754 mmHg 26%
    09:00 +36°C° 0 mm 7 mps 754 mmHg 25%
    10:00 +39°C° 0 mm 7 mps 754 mmHg 23%
    11:00 +40°C° 0 mm 7 mps 753 mmHg 21%
    12:00 +41°C° 0 mm 7 mps 753 mmHg 19%
    13:00 +41°C° 0 mm 6 mps 753 mmHg 18%
    14:00 +42°C° 0 mm 6 mps 752 mmHg 18%
    15:00 +42°C° 0 mm 5 mps 752 mmHg 18%
    16:00 +41°C° 0 mm 4 mps 752 mmHg 20%
    17:00 +38°C° 0 mm 4 mps 752 mmHg 22%
    18:00 +37°C° 0 mm 4 mps 752 mmHg 23%
    19:00 +36°C° 0 mm 4 mps 753 mmHg 25%
    20:00 +36°C° 0 mm 4 mps 753 mmHg 27%
    21:00 +35°C° 0 mm 4 mps 754 mmHg 29%
    22:00 +34°C° 0 mm 4 mps 754 mmHg 31%
    23:00 +33°C° 0 mm 4 mps 754 mmHg 33%

    27 October, Saturday

    Time Temperature Precipitation Wind Pressure Humidity
    00:00 +33°C° 0 mm 4 mps 754 mmHg 35%
    01:00 +32°C° 0 mm 4 mps 754 mmHg 37%
    02:00 +32°C° 0 mm 4 mps 754 mmHg 40%
    03:00 +32°C° 0 mm 4 mps 754 mmHg 43%
    04:00 +32°C° 0 mm 4 mps 754 mmHg 45%
    05:00 +30°C° 0 mm 5 mps 755 mmHg 47%
    06:00 +30°C° 0 mm 5 mps 755 mmHg 49%
    07:00 +32°C° 0 mm 6 mps 756 mmHg 51%
    08:00 +33°C° 0 mm 6 mps 756 mmHg 53%
    09:00 +33°C° 0 mm 7 mps 757 mmHg 55%
    10:00 +34°C° 0 mm 7 mps 757 mmHg 52%
    11:00 +34°C° 0 mm 7 mps 756 mmHg 49%
    12:00 +35°C° 0 mm 7 mps 756 mmHg 46%
    13:00 +35°C° 0 mm 7 mps 756 mmHg 44%
    14:00 +35°C° 0 mm 7 mps 755 mmHg 42%
    15:00 +35°C° 0 mm 6 mps 755 mmHg 40%
    16:00 +35°C° 0 mm 6 mps 756 mmHg 42%
    17:00 +34°C° 0 mm 5 mps 756 mmHg 44%
    18:00 +33°C° 0 mm 4 mps 756 mmHg 45%
    19:00 +33°C° 0 mm 4 mps 757 mmHg 45%
    20:00 +33°C° 0 mm 3 mps 757 mmHg 45%
    21:00 +31°C° 0 mm 3 mps 757 mmHg 45%
    22:00 +31°C° 0 mm 3 mps 757 mmHg 44%
    23:00 +30°C° 0 mm 4 mps 757 mmHg 43%

    28 October, Sunday

    Time Temperature Precipitation Wind Pressure Humidity
    00:00 +30°C° 0 mm 4 mps 757 mmHg 42%
    01:00 +29°C° 0 mm 5 mps 757 mmHg 38%
    02:00 +29°C° 0 mm 6 mps 757 mmHg 34%
    03:00 +28°C° 0 mm 7 mps 757 mmHg 30%
    04:00 +28°C° 0 mm 6 mps 757 mmHg 27%
    05:00 +27°C° 0 mm 6 mps 758 mmHg 25%
    06:00 +27°C° 0 mm 6 mps 758 mmHg 23%
    07:00 +27°C° 0 mm 6 mps 758 mmHg 23%
    08:00 +27°C° 0 mm 6 mps 759 mmHg 23%
    09:00 +28°C° 0 mm 6 mps 759 mmHg 23%
    10:00 +29°C° 0 mm 6 mps 759 mmHg 22%
    11:00 +32°C° 0 mm 6 mps 759 mmHg 21%
    12:00 +33°C° 0 mm 5 mps 758 mmHg 21%
    13:00 +33°C° 0 mm 6 mps 758 mmHg 20%
    14:00 +34°C° 0 mm 6 mps 757 mmHg 19%
    15:00 +34°C° 0 mm 6 mps 757 mmHg 18%
    16:00 +33°C° 0 mm 5 mps 757 mmHg 17%
    17:00 +32°C° 0 mm 5 mps 757 mmHg 16%
    18:00 +30°C° 0 mm 4 mps 757 mmHg 15%
    19:00 +30°C° 0 mm 4 mps 757 mmHg 14%
    20:00 +29°C° 0 mm 4 mps 757 mmHg 14%
    21:00 +28°C° 0 mm 4 mps 757 mmHg 13%
    22:00 +28°C° 0 mm 4 mps 757 mmHg 14%
    23:00 +27°C° 0 mm 4 mps 757 mmHg 14%

    29 October, Monday

    Time Temperature Precipitation Wind Pressure Humidity
    00:00 +27°C° 0 mm 4 mps 757 mmHg 15%
    01:00 +26°C° 0 mm 4 mps 757 mmHg 16%
    02:00 +26°C° 0 mm 4 mps 756 mmHg 18%
    03:00 +25°C° 0 mm 4 mps 756 mmHg 19%
    04:00 +25°C° 0 mm 5 mps 756 mmHg 22%
    05:00 +23°C° 0 mm 5 mps 757 mmHg 24%
    06:00 +22°C° 0 mm 5 mps 757 mmHg 26%
    07:00 +25°C° 0 mm 5 mps 757 mmHg 24%
    08:00 +26°C° 0 mm 5 mps 758 mmHg 23%
    09:00 +27°C° 0 mm 5 mps 758 mmHg 21%
    10:00 +29°C° 0 mm 5 mps 758 mmHg 18%
    11:00 +30°C° 0 mm 5 mps 757 mmHg 15%
    12:00 +32°C° 0 mm 5 mps 757 mmHg 13%
    13:00 +33°C° 0 mm 5 mps 757 mmHg 12%
    14:00 +33°C° 0 mm 5 mps 756 mmHg 11%
    15:00 +33°C° 0 mm 5 mps 756 mmHg 10%
    16:00 +32°C° 0 mm 4 mps 756 mmHg 12%
    17:00 +30°C° 0 mm 4 mps 756 mmHg 13%
    18:00 +29°C° 0 mm 4 mps 756 mmHg 14%
    19:00 +28°C° 0 mm 4 mps 756 mmHg 15%
    20:00 +28°C° 0 mm 3 mps 756 mmHg 16%
    21:00 +27°C° 0 mm 3 mps 756 mmHg 17%
    22:00 +27°C° 0 mm 3 mps 756 mmHg 18%
    23:00 +26°C° 0 mm 3 mps 756 mmHg 18%
    Show more